Location: East Guldeford
(50.9500°N, 0.7500°E)
Time: 18:28:25
(UTC+00:00)

USA 245 - Pass Details

Date: 12 May 2021
Orbit: 265 x 982 km, 97.9° (Epoch: 13 June)

Event Time Altitude Azimuth Distance (km) Brightness Sun altitude
Exits shadow 21:41:43 12° 229° (SW) 983 4.5 -14.9°
Maximum altitude 21:42:52 16° 265° (W) 829 4.6 -15.0°
Drops below altitude 10° 21:44:24 10° 307° (NW) 1,100 6.0 -15.1°
Sets 21:46:41 0° 332° (NNW) 1,970 8.1 -15.3°
